Location: Bernadets
(43.3537°N, 0.3167°E)
Time: 12:53:56
(UTC+00:00)

In-Cosmos 22 Rocket - Visible Passes

Search period start: 28 May 2022 00:00
Search period end: 07 June 2022 00:00
Orbit: 791 x 887 km, 81.2° (Epoch: 27 May)

Date Brightness Start Highest point End Pass type
(mag) Time Alt. Az. Time Alt. Az. Time Alt. Az.
28 May 4.6 03:22:45 10° S 03:28:31 71° E 03:34:20 10° NNE visible
29 May 4.8 03:07:22 10° S 03:13:04 61° E 03:18:49 10° NNE visible
30 May 5.0 02:52:00 10° S 02:57:38 53° E 03:03:16 10° NNE visible
31 May 5.2 02:36:41 10° SSE 02:42:11 46° E 02:47:43 10° NNE visible
01 Jun 5.5 02:21:25 10° SSE 02:26:46 39° E 02:32:08 10° NNE visible
02 Jun 5.7 02:06:12 10° SSE 02:11:21 34° E 02:16:31 10° NNE visible
03 Jun 5.9 01:51:00 10° SSE 01:55:57 30° E 02:00:53 10° NNE visible
03 Jun 4.9 03:32:59 10° SW 03:38:26 41° WNW 03:43:54 10° N visible
04 Jun 6.0 01:35:53 10° SE 01:40:33 26° E 01:45:13 10° NE visible
04 Jun 4.7 03:17:36 11° SSW 03:22:54 47° WNW 03:28:30 10° N visible
05 Jun 6.2 01:20:48 10° SE 01:25:10 22° E 01:29:30 10° NE visible
05 Jun 4.6 03:02:32 14° SSW 03:07:23 54° WNW 03:13:05 10° N visible
06 Jun 6.3 01:05:49 10° SE 01:09:46 19° E 01:13:43 10° NE visible
06 Jun 4.4 02:47:27 17° SSW 02:51:53 62° WNW 02:57:38 10° N visible
